Wind_Speed
67 71 75 79 83 87 92 96 101 105 109 113 116 120 123 126 129 133 137 141 145 148 152 154 155 156 157 157 157 156 156 155 154 154 153 153 152 152 151 151 151 151 152 153 153 154 155 155 155 154 153 152 151 151 150 149 148 147 146 145 143 142 141 140 139 138 137 136 135 135 134 132 131 130
65 68 71 74 78 82 87 91 96 101 105 109 112 116 119 123 126 128 132 136 140 145 149 152 154 156 156 157 157 157 157 157 157 156 155 154 153 153 152 152 151 151 151 151 152 153 154 155 155 155 155 154 153 153 152 151 150 149 148 147 146 144 143 142 141 140 139 138 138 137 136 135 134 133
63 65 67 70 74 78 81 86 90 95 100 105 109 112 115 119 122 125 128 131 135 140 145 149 152 154 155 156 157 157 158 158 159 158 157 156 155 154 153 152 152 152 152 151 151 152 153 154 154 155 155 155 155 155 154 153 153 152 151 150 149 147 146 145 143 142 141 141 140 139 139 138 137 136
58 61 63 66 70 74 77 80 85 90 94 99 104 108 112 115 118 121 124 126 130 135 140 144 148 152 154 155 156 157 158 159 160 160 159 158 157 156 154 154 153 153 152 152 152 152 152 152 153 154 154 155 155 156 156 155 155 154 153 152 151 150 149 147 146 145 144 143 142 141 141 140 139 138
53 56 58 60 64 69 72 76 80 84 89 93 98 103 107 111 114 117 120 123 126 131 135 138 143 148 151 153 155 157 158 159 160 160 160 159 158 157 156 155 154 154 153 153 153 152 152 152 152 153 153 154 155 155 156 156 156 156 155 154 153 152 151 150 149 148 147 145 144 144 143 142 141 141
48 50 53 55 59 63 68 72 75 79 83 88 92 97 102 106 110 113 116 119 123 128 131 134 138 143 147 150 153 155 157 159 160 160 160 160 159 159 158 157 156 155 154 154 154 153 153 153 152 152 153 153 153 154 155 155 156 156 156 156 155 154 154 152 151 151 149 148 147 146 145 144 143 143
44 46 48 51 54 58 63 67 70 73 78 82 87 91 96 101 105 109 112 115 120 124 128 130 133 137 141 145 149 153 155 157 159 160 160 160 160 160 160 159 158 157 156 155 154 154 154 154 153 153 153 153 153 153 154 154 155 155 156 156 156 156 155 155 154 153 152 151 150 149 148 147 146 145
41 43 45 47 50 54 58 63 66 69 72 77 81 86 90 95 100 104 108 111 115 120 124 127 129 133 137 141 145 149 152 155 157 158 159 160 161 161 161 160 159 158 157 157 156 155 155 155 155 154 154 153 153 153 153 154 154 155 155 155 156 156 156 156 156 155 154 153 152 151 150 149 149 148
39 40 42 43 46 50 54 58 62 65 68 72 76 81 85 90 94 99 103 107 111 115 120 123 126 129 132 136 139 143 147 151 154 156 158 159 160 161 161 161 160 160 159 158 158 157 156 156 156 155 155 154 154 154 153 153 154 154 154 155 155 155 155 156 156 156 156 155 154 153 152 152 151 150
36 38 40 41 43 46 50 54 58 62 64 67 70 76 81 85 89 94 98 102 106 110 114 119 122 125 128 131 135 139 143 146 150 153 155 157 159 160 161 161 161 161 161 160 159 159 158 157 157 156 156 155 155 155 154 154 154 153 154 154 154 154 155 155 155 155 155 155 155 155 154 154 153 153
33 35 37 39 40 42 46 50 54 58 61 63 65 70 75 79 84 88 93 97 101 105 109 113 118 121 123 127 131 135 139 142 145 148 151 154 156 158 159 160 161 161 162 161 161 160 159 158 158 157 157 156 156 156 155 155 154 154 154 154 154 154 154 154 154 155 155 155 155 154 154 154 154 154
30 32 35 37 39 40 42 46 50 54 58 60 62 65 69 74 79 84 88 92 97 101 105 109 113 116 120 123 126 130 134 137 140 143 146 150 153 156 157 159 160 161 162 162 162 161 161 160 159 158 158 157 157 157 156 156 156 155 155 154 154 154 154 154 154 154 154 154 154 154 154 154 154 154
29 30 32 34 36 38 40 42 46 50 54 57 60 62 64 68 73 78 83 88 92 96 100 105 109 112 116 119 122 126 129 131 133 137 141 145 148 151 154 155 157 159 161 162 162 162 162 161 160 160 159 159 158 158 158 157 157 156 156 156 155 155 154 154 154 154 154 154 154 154 153 153 153 153
27 28 30 32 34 36 38 40 43 46 50 54 57 59 61 64 68 73 77 82 87 91 96 101 105 108 112 115 118 121 124 125 127 130 135 138 142 146 149 151 154 156 159 160 161 162 162 162 161 161 160 160 159 159 159 158 158 158 158 158 157 156 156 155 155 154 154 154 154 154 153 153 153 153
25 27 28 30 31 34 36 38 40 43 46 50 53 56 59 61 64 68 72 76 81 86 91 96 101 105 108 112 114 115 118 120 122 125 128 131 135 140 144 146 149 152 155 157 159 160 162 162 162 162 161 160 160 160 160 159 159 159 160 159 159 158 157 156 156 155 154 154 154 154 154 153 153 153
22 25 27 29 30 32 34 36 38 40 43 46 49 52 55 58 61 64 67 71 75 80 85 90 95 100 105 108 110 111 113 115 117 120 123 126 129 133 138 140 143 147 151 153 155 156 158 160 161 161 161 161 161 161 161 161 161 161 161 161 160 160 159 158 157 156 156 155 154 154 154 154 153 153
21 22 24 27 29 30 32 34 36 38 40 42 45 48 52 55 58 60 63 67 71 75 80 84 90 95 99 103 106 108 109 110 112 115 118 121 123 127 131 134 137 141 145 148 150 151 153 156 158 158 159 160 161 161 162 162 162 162 162 162 161 161 160 159 158 158 157 157 156 155 155 154 154 153
21 21 22 24 27 29 31 32 34 36 38 40 42 45 48 51 54 57 60 63 66 70 74 79 83 88 93 97 101 103 105 106 108 110 113 115 118 122 125 128 131 135 139 142 144 145 148 151 154 154 156 158 160 161 162 162 163 163 163 162 162 162 161 160 160 159 159 158 158 157 156 155 155 154
21 20 21 22 24 27 29 31 33 34 36 38 40 42 44 47 50 54 57 60 62 65 69 73 77 82 87 91 95 98 100 102 104 106 109 111 113 116 119 122 124 128 132 136 138 139 142 146 150 151 152 154 157 159 160 162 163 163 163 163 163 162 162 161 161 161 160 160 159 159 158 157 156 155
21 20 20 21 22 25 27 30 32 33 34 36 38 40 42 45 47 50 53 56 59 62 65 69 72 76 81 84 88 92 95 98 100 102 105 107 108 111 114 117 119 122 126 131 133 133 135 140 145 148 149 152 154 156 158 159 161 162 162 163 163 163 163 162 162 162 161 161 161 160 159 158 158 157
21 21 21 21 21 22 25 28 30 32 33 35 36 38 40 43 45 47 50 53 56 59 62 65 68 72 75 79 82 86 90 93 96 98 100 102 105 107 109 111 114 117 122 126 129 130 131 134 139 142 145 148 151 153 155 156 158 160 161 162 162 162 163 162 162 162 162 161 161 161 161 160 159 158
22 21 21 21 21 21 23 25 28 30 32 34 35 36 38 41 43 45 48 51 53 56 59 62 65 68 71 74 77 80 84 87 90 93 96 99 100 102 104 106 109 113 117 121 124 125 127 130 134 137 140 142 145 148 151 153 155 157 158 159 160 161 162 162 162 162 162 162 161 161 161 161 161 160
23 22 22 22 22 22 22 24 26 28 31 32 34 35 37 38 41 43 45 48 51 53 56 59 62 65 67 70 73 75 78 81 84 88 92 94 95 96 98 101 104 107 111 115 118 121 123 126 130 133 135 137 138 141 145 149 152 154 156 157 157 158 159 160 161 161 161 161 162 161 161 161 161 161
24 23 23 22 22 22 22 23 25 27 29 31 32 34 35 37 39 41 43 46 48 51 54 57 60 63 65 67 70 72 74 76 79 82 86 88 90 92 94 97 99 102 105 108 112 115 117 121 125 128 130 132 134 136 140 143 147 150 153 154 155 155 156 157 158 159 159 160 161 161 162 162 162 162
23 23 24 23 23 23 22 23 24 25 27 29 30 32 34 36 37 39 41 43 46 48 51 54 57 60 63 65 67 69 71 73 75 78 80 82 84 87 90 92 95 97 100 102 105 108 111 115 119 122 124 126 129 132 136 138 141 144 147 149 151 152 153 154 155 156 157 158 159 160 160 161 162 162
23 23 23 23 24 24 23 23 24 25 26 28 29 30 32 34 36 37 39 41 43 45 48 51 54 57 59 62 65 67 69 71 73 74 76 77 79 81 84 87 90 93 96 97 99 101 105 108 113 116 119 121 124 128 131 134 136 138 140 142 144 146 148 150 151 153 154 155 156 157 158 159 160 161
24 23 23 23 23 24 24 24 24 25 26 27 28 29 30 32 34 36 38 40 41 43 46 48 50 53 56 59 61 64 66 68 70 71 73 74 76 78 81 83 86 89 91 92 94 96 100 103 106 109 112 115 118 122 126 129 131 133 135 136 137 139 142 144 146 148 150 152 154 155 156 157 157 158
24 24 23 23 23 23 24 24 24 25 26 27 27 28 29 31 32 34 36 38 40 41 43 46 48 50 52 55 57 59 62 64 66 68 70 71 73 76 78 80 82 85 87 88 89 92 96 98 101 104 106 109 113 116 120 123 126 128 130 131 132 134 135 137 139 141 144 147 150 152 153 154 155 155
25 24 24 23 23 23 24 24 24 25 27 28 28 28 29 30 31 32 34 36 38 40 41 43 46 48 50 52 54 55 57 59 62 65 67 69 70 72 74 76 79 81 83 84 86 89 92 94 97 99 101 104 106 110 113 117 120 122 124 126 128 129 130 131 133 135 137 140 144 147 149 151 152 153
25 24 24 24 24 23 23 24 24 25 26 27 28 29 29 29 30 31 32 34 36 38 39 41 43 45 47 49 51 52 54 56 58 60 63 65 67 69 71 72 74 76 78 80 82 85 87 90 92 94 96 98 101 103 106 109 113 116 118 121 123 125 126 127 129 130 133 135 138 140 143 145 147 149
25 24 24 24 24 24 23 23 24 25 26 27 28 29 29 29 30 30 31 32 34 36 37 39 41 42 44 46 48 49 51 53 55 56 58 60 62 64 67 68 70 72 73 75 77 80 82 85 87 89 91 93 96 98 100 103 106 109 112 115 117 120 121 123 124 126 129 131 133 136 138 140 141 143
26 25 25 24 24 24 24 24 23 24 25 26 27 28 29 29 29 30 31 32 33 34 35 37 38 40 42 43 45 46 48 50 52 53 54 56 58 60 62 64 66 68 69 71 72 74 77 80 82 84 87 89 91 93 95 98 100 103 105 108 111 114 116 118 120 122 125 127 129 132 134 136 137 138
27 26 25 25 25 25 24 24 24 24 25 26 26 27 28 28 29 30 31 32 33 34 34 35 36 37 38 40 41 43 44 46 48 50 51 53 55 56 58 60 62 63 65 67 68 70 72 75 77 80 83 85 87 89 91 93 96 99 101 102 104 108 110 113 115 118 120 123 125 128 130 132 134 135
27 26 25 25 25 25 25 25 25 25 25 25 26 27 27 28 28 29 31 32 33 34 35 34 35 35 36 37 38 40 41 43 45 47 48 49 51 53 56 57 58 59 61 63 65 66 68 71 73 75 77 79 81 84 87 89 91 94 96 97 99 102 105 107 109 112 115 118 121 124 126 128 130 131
28 26 26 25 25 25 25 25 25 25 25 26 26 26 26 27 27 28 30 31 33 34 35 35 34 35 35 36 36 37 38 39 41 43 44 45 47 50 53 55 55 56 58 59 60 62 64 66 68 70 71 73 76 79 81 84 86 89 91 92 94 96 99 101 103 105 109 112 116 119 122 124 126 127
29 27 26 25 25 25 25 25 25 25 25 25 26 26 26 26 26 27 28 30 32 33 34 34 34 34 35 35 35 35 35 36 38 39 40 42 44 47 49 51 52 53 54 55 56 58 59 61 63 65 67 68 71 74 76 78 81 83 85 87 89 91 94 97 98 99 102 105 109 113 116 119 122 123
31 29 27 26 25 25 25 25 25 25 25 25 25 25 26 26 26 26 27 28 30 32 33 32 32 32 33 33 34 34 33 34 34 35 37 39 41 43 45 47 49 50 51 52 53 54 56 57 59 61 63 65 67 69 71 73 76 78 79 81 84 86 89 92 94 95 96 99 102 105 109 113 116 119
31 30 28 27 26 26 25 26 26 25 25 25 24 24 25 26 26 26 26 27 28 30 31 31 30 31 31 32 32 32 32 32 32 33 34 36 38 40 43 44 46 48 49 50 51 52 53 54 56 58 60 62 64 66 67 68 70 72 74 76 78 81 83 86 89 90 92 94 97 99 103 106 110 113
31 30 29 27 27 26 26 26 26 26 25 25 24 24 25 25 25 25 25 26 27 28 29 29 28 28 29 29 30 30 30 30 30 30 31 33 35 38 40 42 44 45 46 47 49 50 51 53 54 55 56 58 60 61 63 64 65 66 68 70 73 75 78 81 84 86 88 90 92 95 97 100 103 106
30 30 29 28 27 26 26 26 26 25 25 25 24 24 24 24 25 25 25 25 26 27 28 27 27 26 27 27 27 28 28 28 28 28 29 30 32 34 37 39 41 42 43 45 46 47 49 50 52 53 54 55 56 57 58 60 62 64 65 67 69 71 73 76 78 81 83 85 87 90 92 95 97 99
30 29 28 27 27 27 26 26 25 25 25 25 24 24 24 24 24 24 24 24 25 26 26 26 25 25 25 25 25 26 26 26 26 27 28 29 30 32 34 36 37 39 40 42 43 44 46 47 49 50 51 52 53 54 55 57 59 61 63 64 65 67 69 71 73 76 77 79 82 84 87 89 92 94
30 29 28 27 26 26 27 26 26 25 25 24 24 24 23 23 23 23 23 23 24 25 25 25 24 24 23 23 23 24 24 24 25 25 26 27 29 30 32 34 35 36 38 39 40 42 43 44 46 47 48 50 51 52 53 54 56 57 59 60 62 63 65 67 69 72 74 76 78 80 82 84 87 89
30 30 28 27 26 25 26 26 26 25 24 24 24 24 23 23 22 22 23 23 23 24 25 25 24 23 22 22 22 22 22 23 23 24 24 25 27 28 30 32 33 34 36 37 38 39 40 42 43 44 45 46 48 49 50 51 52 53 55 57 58 59 61 63 65 67 70 72 74 76 78 80 82 83
30 30 29 28 27 25 25 26 26 25 24 24 23 23 23 23 22 22 22 22 23 23 24 24 23 22 21 21 21 21 21 21 22 22 23 24 25 26 28 29 31 32 33 34 35 36 37 39 40 41 42 43 44 46 47 48 49 50 51 53 54 56 57 58 60 62 64 67 69 71 73 75 77 79
30 30 29 28 27 26 25 25 25 25 25 24 23 23 23 23 22 22 21 22 22 22 23 23 23 22 21 20 20 20 20 20 20 21 22 22 23 24 26 27 29 30 31 31 32 33 34 35 36 38 39 41 41 42 43 45 46 47 48 50 51 52 53 55 56 58 60 62 64 66 68 70 72 74
Wind_Direction
239 237 236 235 233 233 232 231 230 230 230 229 229 229 229 228 228 228 228 228 228 228 227 227 226 226 227 227 227 227 229 230 231 232 233 234 234 235 235 236 236 236 236 237 237 238 238 238 238 239 239 239 239 239 240 240 241 241 242 242 242 242 242 243 243 243 243 244 244 245 246 247 247 248
241 240 238 237 235 234 233 232 231 230 230 230 229 229 229 229 228 227 227 228 228 228 228 228 227 226 226 227 227 227 227 228 229 231 232 233 234 234 234 235 236 236 236 236 237 237 238 238 238 239 239 239 239 239 240 240 241 241 242 242 242 242 243 243 243 243 243 243 244 244 245 246 247 247
242 242 240 239 237 236 234 233 232 231 231 230 230 230 230 229 229 228 227 227 228 228 228 228 228 228 227 226 227 227 227 228 228 229 230 231 232 233 234 234 235 235 236 236 237 237 237 238 238 239 239 239 239 240 240 240 241 241 241 242 242 243 243 243 243 244 244 244 244 244 245 245 246 246
243 242 241 240 239 237 235 233 233 232 231 231 230 230 230 230 229 229 229 227 227 228 228 228 229 229 228 227 227 227 227 228 228 228 229 230 231 232 233 234 234 235 235 236 237 237 237 238 238 239 239 239 239 239 240 240 240 241 241 242 242 243 243 243 243 244 244 244 245 245 245 245 245 246
244 243 242 240 239 238 237 235 233 232 232 231 231 231 230 230 230 229 229 228 228 228 228 228 229 229 229 228 228 227 227 228 228 228 229 229 230 231 232 233 234 234 235 235 236 237 237 237 238 238 239 239 239 240 240 240 240 241 241 242 242 242 243 243 243 244 244 244 245 245 245 246 246 246
246 244 242 240 238 238 237 236 234 232 232 231 231 231 231 230 230 230 229 229 229 228 228 228 229 229 229 229 229 228 228 228 228 228 229 229 230 230 231 232 232 233 234 235 235 236 237 237 238 238 238 239 239 240 240 240 241 241 241 242 242 242 243 243 244 244 244 244 245 245 245 246 246 246
249 245 243 240 239 238 237 237 235 233 232 231 231 231 231 231 230 230 230 229 229 229 229 228 228 229 229 229 230 229 229 229 229 229 229 229 230 230 231 231 232 232 233 234 235 235 236 237 237 237 238 238 239 239 240 240 241 241 241 242 242 242 242 243 243 244 244 244 245 245 246 246 246 247
251 248 244 241 239 238 237 237 237 235 232 231 231 230 230 230 230 230 230 230 229 230 230 230 229 228 229 229 230 230 230 229 230 230 229 229 230 230 231 231 232 232 232 233 233 234 235 236 236 237 237 238 238 239 239 240 241 241 241 242 242 242 242 243 243 244 244 244 245 245 246 246 246 247
254 251 247 243 240 238 237 236 237 236 234 232 231 230 230 230 230 230 230 230 230 230 230 231 230 229 229 229 229 230 230 230 230 230 230 230 230 230 231 231 232 232 232 233 233 233 234 235 236 236 237 237 238 238 239 239 240 241 241 242 242 242 243 243 243 243 244 244 245 245 245 246 246 247
255 253 250 246 241 238 237 236 236 237 236 233 231 230 230 229 229 230 230 230 230 230 231 231 231 231 230 230 229 229 230 230 230 230 230 230 231 231 231 231 232 232 233 233 233 233 233 234 235 236 236 237 237 238 238 239 239 240 241 241 242 242 243 243 243 244 244 244 244 245 245 246 246 246
256 254 252 249 245 240 236 236 236 236 236 235 233 231 230 230 229 229 229 230 230 230 231 231 232 232 231 231 230 230 230 230 230 231 231 231 231 231 231 232 232 232 233 233 234 234 234 234 234 235 236 236 237 237 238 238 239 239 240 241 241 242 242 243 243 243 244 244 244 245 245 245 246 246
257 254 252 250 248 244 239 236 235 236 236 236 234 232 231 230 230 229 229 229 230 230 231 231 232 233 233 232 231 231 231 230 230 230 231 231 231 232 232 232 232 233 233 234 234 234 234 234 234 235 235 236 236 237 238 238 239 239 239 240 240 241 242 242 243 243 244 244 244 245 245 245 246 246
262 256 252 250 248 247 243 239 236 235 236 237 236 234 231 230 230 230 229 228 228 229 230 231 232 232 233 233 232 232 232 232 231 231 231 231 232 232 232 232 233 233 233 234 234 235 235 235 235 235 235 235 236 236 237 238 238 239 239 239 240 240 241 242 242 243 243 244 244 245 245 245 246 246
268 262 255 251 248 247 245 242 239 236 235 236 237 236 234 231 230 230 230 229 229 229 229 231 232 232 233 233 233 233 233 233 232 232 232 232 233 233 233 232 233 233 234 234 234 235 235 235 235 235 235 236 236 236 237 237 238 238 239 239 240 240 240 241 241 242 243 244 244 245 245 245 246 246
272 267 261 255 251 248 246 244 242 239 236 235 236 237 236 234 232 230 229 230 230 229 229 230 231 232 233 234 234 234 234 234 233 233 233 233 233 234 234 233 233 233 234 235 235 235 236 236 236 236 236 236 236 237 237 237 237 238 238 239 239 240 240 240 241 241 242 243 243 244 245 245 246 246
276 270 265 260 255 250 247 245 243 241 239 236 235 235 236 236 235 232 230 229 229 230 230 230 231 232 233 234 235 234 234 234 234 233 233 233 233 234 235 235 234 234 234 234 235 235 236 237 237 237 237 237 237 237 237 237 237 238 238 238 239 239 240 240 241 241 241 242 243 243 244 245 245 246
282 274 268 264 259 254 249 246 243 242 241 239 236 234 234 235 235 235 233 231 230 230 230 230 231 232 233 234 235 235 235 234 234 234 234 234 233 233 234 235 235 235 235 235 234 235 236 237 237 237 237 238 238 238 238 238 238 238 238 238 239 239 239 240 240 241 241 242 242 242 243 244 245 245
288 280 272 266 262 258 254 249 245 242 241 240 238 236 234 233 234 235 235 234 232 231 230 231 231 232 233 234 235 236 236 236 235 235 235 234 234 234 234 234 235 236 237 236 235 235 235 236 237 237 238 238 238 238 239 239 239 239 239 239 239 239 239 239 240 240 241 241 242 242 243 243 244 244
293 286 279 272 266 261 257 253 248 244 241 240 239 237 236 234 232 233 233 234 234 233 232 232 232 232 233 234 235 236 237 237 236 236 236 235 234 234 235 235 235 235 237 238 237 236 235 236 236 236 237 237 238 238 239 239 239 239 239 239 239 240 240 240 240 240 240 241 242 242 242 243 243 244
297 291 285 278 272 265 260 255 251 247 243 240 239 238 237 235 233 232 232 233 234 234 234 233 233 233 233 233 234 235 236 237 237 237 237 236 235 235 234 235 235 235 236 237 238 237 236 236 237 236 236 236 237 238 238 239 239 240 240 240 240 240 240 240 240 240 240 241 241 242 242 243 243 244
299 295 289 283 277 271 265 259 254 250 246 243 240 238 237 236 235 234 232 232 232 233 234 234 234 234 234 234 234 235 235 236 237 238 238 238 237 236 235 234 234 234 235 236 237 237 236 237 237 237 237 236 236 237 238 238 239 239 240 240 240 241 241 241 241 241 241 241 241 242 242 243 243 243
299 296 293 288 281 275 270 264 258 253 249 246 242 240 238 237 236 235 234 233 232 232 233 234 235 235 235 235 235 235 235 236 236 237 238 238 238 237 237 236 235 234 234 235 236 236 236 236 237 238 238 237 237 237 238 238 238 239 239 240 240 240 241 241 241 241 241 242 242 242 242 243 243 243
300 295 292 289 285 279 275 269 263 257 252 248 246 242 240 238 237 236 235 235 234 233 233 234 235 236 236 236 236 236 236 235 236 236 237 238 238 238 238 237 237 236 235 235 235 235 236 236 236 237 237 238 238 238 238 238 239 239 239 240 240 240 241 241 241 241 241 242 242 242 243 243 243 244
299 296 292 289 285 280 277 273 269 263 257 252 248 245 243 241 238 237 236 235 235 235 235 234 234 235 236 236 237 237 237 236 236 236 237 237 238 238 238 238 238 237 237 236 236 236 235 236 236 237 237 237 238 238 238 238 239 239 239 240 240 240 240 241 242 242 242 242 242 242 242 243 243 244
297 294 291 289 286 281 277 274 271 267 262 256 252 248 246 244 242 240 238 237 236 236 236 235 235 236 236 236 237 237 238 238 238 237 237 237 237 237 238 238 239 238 238 237 237 236 236 236 236 237 237 237 237 238 239 239 239 239 239 240 240 240 240 241 241 242 242 242 243 242 242 243 243 244
297 291 287 285 284 282 279 276 273 269 265 260 256 252 249 246 244 243 241 240 239 238 237 237 237 237 237 237 237 237 238 238 239 239 239 238 237 237 237 238 238 238 239 238 237 237 237 237 237 237 237 237 237 238 238 239 239 240 240 240 240 240 240 241 241 241 242 242 243 243 243 243 243 243
301 295 288 282 279 278 277 275 274 271 267 263 259 256 253 250 247 245 243 242 241 240 240 240 239 238 238 238 238 238 238 238 239 239 240 239 239 238 238 237 237 238 238 238 238 238 237 237 237 237 237 237 237 237 238 239 240 240 240 241 240 240 240 241 241 241 241 242 243 243 244 244 244 244
303 298 292 287 281 276 273 271 270 270 268 265 261 258 255 253 251 249 247 245 243 242 242 242 241 241 240 240 239 238 238 238 239 239 239 239 239 239 239 238 238 238 237 237 237 237 237 237 237 237 236 236 236 236 237 238 239 240 240 241 241 241 241 241 241 241 241 242 242 243 244 244 244 244
304 299 294 289 284 279 274 271 269 267 265 264 261 258 256 254 253 252 250 248 247 245 244 243 243 243 243 242 242 241 239 238 238 239 239 239 239 239 239 239 239 239 238 237 237 236 237 237 237 237 237 236 236 236 236 237 238 239 239 240 240 241 241 241 241 241 242 242 242 243 243 244 244 245
303 300 295 290 286 281 277 273 271 268 266 264 261 259 257 255 254 253 252 251 250 248 247 246 245 244 244 244 244 243 242 241 239 239 239 239 239 239 239 239 239 239 239 239 238 237 237 237 237 237 237 237 237 236 236 236 237 238 238 238 239 240 240 241 241 241 241 242 242 243 243 244 244 244
302 300 297 293 288 284 280 277 273 271 268 266 264 262 260 258 257 256 255 254 253 251 250 248 248 247 247 245 244 244 244 244 242 241 240 240 239 239 239 239 239 240 240 239 239 239 238 237 237 237 237 238 238 237 237 237 237 237 237 237 238 238 239 239 239 240 240 241 241 242 243 243 244 244
302 300 298 295 290 286 283 279 276 273 270 267 265 263 262 261 260 260 260 259 257 255 253 251 249 249 249 248 247 245 244 245 244 243 242 241 240 239 239 239 239 239 239 239 239 239 239 239 238 238 237 237 237 237 237 237 237 237 237 237 237 237 237 237 238 238 239 240 240 241 242 242 243 243
303 300 298 296 292 289 285 282 279 276 273 269 266 264 263 262 262 262 262 262 262 260 258 256 254 252 251 250 249 248 246 245 245 244 243 243 242 241 240 239 238 238 238 238 238 238 239 239 239 238 238 237 237 237 237 237 237 237 237 236 236 237 237 236 236 237 237 238 239 240 240 241 242 242
305 301 297 295 293 290 286 283 281 278 276 273 270 266 263 262 261 261 262 262 262 262 261 260 259 258 256 254 252 250 249 247 246 245 244 243 243 243 242 241 239 238 237 237 237 237 238 238 239 239 239 238 238 237 237 237 237 237 237 236 236 237 237 236 236 236 236 236 237 238 239 240 241 241
307 302 297 294 292 290 287 283 280 279 277 276 273 270 266 263 262 261 261 261 261 262 262 261 260 259 259 257 255 254 251 249 248 247 245 243 242 243 243 243 241 239 238 237 236 237 237 238 238 239 239 239 239 239 238 238 237 237 237 237 236 237 237 237 236 235 235 236 236 237 238 239 240 240
308 304 298 294 291 289 287 283 280 278 276 275 274 272 270 267 265 264 263 262 262 262 262 262 261 260 259 258 257 256 254 251 250 248 246 244 243 242 243 244 243 241 240 239 237 237 236 237 237 238 238 238 238 238 238 238 238 238 238 237 236 236 237 237 237 236 236 236 236 236 237 238 239 239
308 305 301 295 291 289 286 284 281 278 276 275 274 274 273 271 269 267 265 264 263 263 263 262 262 261 260 259 258 256 255 254 252 249 247 244 243 242 242 243 243 242 241 240 238 237 236 236 236 236 237 237 237 238 238 238 238 238 238 238 237 237 237 237 237 236 236 236 236 236 236 237 238 238
307 306 302 297 293 289 287 284 282 280 278 277 276 275 274 273 271 269 268 267 265 265 265 264 263 262 261 260 258 257 255 254 253 251 248 245 243 242 241 241 241 241 241 240 239 238 237 236 235 235 235 235 236 237 237 238 238 238 238 238 238 237 237 237 237 237 236 236 236 236 236 236 237 237
307 306 303 299 294 289 286 285 282 280 279 279 278 276 275 274 272 271 270 269 269 268 267 266 265 264 263 261 259 258 256 255 254 252 250 248 245 242 241 241 241 241 241 240 239 238 237 237 236 235 235 235 235 235 236 237 237 238 238 238 238 238 238 238 238 237 237 236 236 236 236 236 237 237
306 305 304 300 296 291 286 284 282 280 278 277 277 276 275 275 274 272 271 270 270 270 269 268 267 266 265 263 261 259 257 256 254 253 251 249 246 244 242 242 241 241 241 240 240 239 238 238 237 236 236 235 235 235 235 235 235 235 236 236 236 237 237 237 237 238 237 237 237 236 236 236 237 237
304 304 304 301 297 292 287 283 281 279 277 275 275 275 275 275 275 273 272 271 271 271 271 270 268 267 265 264 262 260 258 256 255 253 251 249 246 244 242 241 241 240 241 241 240 240 239 238 238 237 237 236 235 235 234 234 234 234 234 235 235 235 236 236 236 237 237 237 237 237 237 237 237 237
302 303 303 302 298 293 288 284 281 280 277 275 274 274 274 274 274 274 273 272 272 272 271 271 269 268 266 264 262 260 259 257 255 253 252 250 247 245 243 241 240 240 240 240 240 240 240 239 239 238 237 237 236 235 235 235 235 235 235 235 235 235 235 235 235 235 235 235 236 236 236 237 237 237
300 302 303 303 300 295 289 284 281 279 278 276 274 272 273 273 274 274 273 272 271 271 271 271 270 269 267 266 263 260 258 256 255 254 252 251 249 247 245 243 242 240 240 240 240 240 240 240 240 239 238 238 237 237 236 236 236 236 236 236 235 235 235 235 235 235 235 235 235 235 236 236 236 237
299 301 303 303 302 298 292 286 282 279 277 276 274 272 271 271 272 272 272 272 271 270 270 271 271 269 268 267 265 262 259 256 254 253 252 251 250 248 247 245 244 243 242 241 240 240 240 240 240 240 240 239 238 237 237 237 236 236 236 236 236 236 236 235 235 236 236 236 236 236 236 236 236 237
298 300 302 303 303 300 295 289 284 280 277 276 274 272 269 269 270 270 271 271 270 269 268 269 270 269 268 266 265 262 260 258 255 253 252 251 250 249 248 246 245 244 243 243 242 241 241 240 239 239 239 239 239 238 237 237 236 236 236 236 236 236 236 236 235 235 235 235 235 236 236 236 237 237
Height
10007 10010 10014 10018 10022 10027 10033 10039 10044 10049 10055 10062 10068 10075 10084 10092 10100 10110 10119 10129 10141 10149 10153 10161 10170 10177 10187 10200 10212 10225 10236 10244 10252 10261 10269 10278 10287 10296 10306 10315 10324 10332 10341 10349 10357 10365 10372 10380 10389 10397 10404 10411 10419 10426 10431 10437 10445 10452 10459 10465 10473 10481 10487 10493 10499 10506 10512 10517 10522 10525 10528 10537 10543 10547
9998 10000 10003 10007 10011 10015 10021 10027 10032 10037 10043 10049 10056 10062 10071 10079 10086 10095 10104 10115 10124 10131 10138 10146 10153 10161 10172 10184 10196 10207 10218 10225 10233 10241 10250 10260 10268 10278 10288 10298 10307 10316 10324 10333 10341 10349 10356 10364 10372 10380 10388 10396 10404 10411 10416 10423 10429 10436 10443 10450 10457 10465 10472 10478 10485 10492 10499 10504 10508 10512 10517 10523 10529 10533
9989 9991 9994 9997 10000 10004 10010 10015 10020 10026 10031 10037 10043 10050 10057 10065 10074 10082 10090 10100 10109 10114 10122 10130 10137 10147 10158 10169 10179 10190 10200 10207 10213 10222 10231 10241 10250 10259 10270 10281 10290 10299 10307 10316 10324 10333 10340 10347 10355 10364 10372 10380 10388 10395 10401 10408 10414 10421 10428 10435 10441 10449 10456 10463 10470 10477 10483 10489 10494 10499 10504 10510 10515 10520
9980 9982 9984 9988 9990 9994 9999 10004 10009 10014 10020 10026 10032 10038 10044 10051 10061 10069 10076 10087 10096 10098 10106 10117 10124 10132 10143 10153 10162 10172 10180 10187 10194 10204 10214 10223 10232 10242 10253 10263 10272 10282 10290 10299 10307 10316 10324 10331 10339 10347 10355 10363 10371 10378 10385 10392 10399 10406 10413 10419 10426 10433 10440 10447 10455 10461 10467 10473 10479 10485 10490 10495 10501 10507
9971 9973 9976 9978 9981 9984 9988 9993 9998 10003 10008 10015 10020 10026 10033 10040 10048 10056 10063 10075 10083 10083 10091 10103 10110 10118 10128 10137 10146 10155 10162 10169 10177 10189 10199 10208 10216 10226 10236 10245 10255 10264 10273 10282 10291 10299 10307 10315 10323 10331 10339 10346 10354 10362 10369 10377 10384 10390 10397 10404 10411 10418 10424 10431 10438 10445 10452 10458 10464 10470 10475 10480 10486 10492
9963 9965 9967 9970 9972 9974 9977 9981 9987 9992 9997 10003 10009 10015 10021 10028 10036 10043 10051 10061 10068 10069 10076 10087 10095 10103 10112 10122 10131 10139 10146 10154 10162 10173 10184 10193 10201 10210 10218 10227 10236 10246 10255 10264 10273 10282 10290 10298 10307 10315 10322 10330 10338 10345 10352 10360 10367 10374 10381 10388 10395 10402 10409 10416 10422 10428 10435 10443 10449 10454 10460 10465 10471 10477
9955 9958 9960 9962 9964 9965 9968 9972 9977 9983 9987 9992 9998 10004 10010 10017 10024 10031 10039 10047 10053 10055 10062 10071 10079 10088 10096 10106 10115 10122 10131 10139 10146 10156 10168 10177 10185 10193 10200 10209 10219 10229 10238 10247 10256 10264 10273 10281 10289 10298 10306 10313 10321 10328 10336 10343 10351 10358 10365 10372 10379 10386 10393 10400 10406 10412 10418 10426 10434 10440 10445 10450 10456 10462
9948 9950 9952 9954 9956 9958 9960 9963 9967 9973 9978 9983 9988 9993 9999 10005 10012 10018 10026 10035 10040 10043 10049 10057 10066 10073 10079 10088 10098 10105 10114 10124 10130 10140 10152 10160 10168 10175 10183 10192 10203 10212 10221 10230 10238 10246 10255 10263 10271 10280 10288 10296 10304 10311 10319 10327 10334 10340 10348 10355 10362 10369 10376 10383 10390 10396 10402 10410 10417 10424 10430 10435 10441 10447
9941 9943 9945 9947 9949 9951 9953 9955 9958 9962 9968 9973 9978 9982 9988 9994 10000 10006 10013 10022 10027 10032 10038 10044 10051 10058 10065 10075 10083 10090 10098 10107 10115 10124 10134 10143 10152 10160 10168 10179 10189 10196 10202 10211 10220 10229 10237 10245 10253 10261 10270 10278 10286 10294 10302 10309 10317 10323 10330 10337 10345 10352 10360 10367 10373 10380 10386 10393 10401 10408 10414 10420 10425 10431
9936 9937 9938 9940 9942 9944 9946 9948 9950 9954 9958 9963 9968 9973 9978 9983 9989 9995 10001 10008 10015 10021 10028 10032 10036 10044 10054 10062 10067 10073 10081 10089 10097 10106 10117 10127 10137 10147 10156 10165 10174 10179 10185 10192 10202 10211 10220 10228 10236 10244 10253 10261 10269 10276 10284 10292 10300 10307 10314 10321 10328 10335 10342 10350 10356 10362 10369 10376 10384 10391 10397 10403 10408 10414
9930 9931 9932 9933 9935 9938 9940 9941 9943 9946 9949 9954 9959 9964 9969 9974 9979 9985 9990 9996 10003 10010 10016 10020 10023 10031 10040 10046 10052 10057 10063 10071 10080 10092 10103 10113 10121 10130 10138 10147 10156 10162 10169 10177 10185 10194 10203 10213 10221 10229 10236 10244 10253 10260 10268 10275 10283 10290 10298 10304 10311 10318 10324 10331 10338 10345 10351 10358 10366 10373 10380 10386 10391 10397
9925 9926 9927 9927 9929 9931 9933 9935 9937 9939 9941 9945 9949 9954 9959 9964 9969 9974 9979 9985 9992 9998 10004 10008 10012 10017 10024 10031 10039 10043 10046 10056 10069 10079 10086 10094 10102 10111 10121 10132 10141 10147 10154 10162 10169 10176 10186 10196 10205 10213 10221 10229 10236 10244 10251 10259 10266 10273 10280 10287 10294 10300 10307 10313 10320 10327 10333 10340 10348 10356 10363 10369 10374 10380
9921 9921 9921 9922 9923 9924 9926 9929 9931 9933 9935 9937 9940 9945 9949 9955 9959 9964 9969 9974 9980 9986 9992 9996 9999 10004 10009 10015 10023 10027 10032 10045 10059 10066 10070 10078 10088 10098 10108 10118 10126 10131 10138 10146 10153 10160 10169 10178 10187 10195 10204 10212 10220 10226 10234 10241 10249 10257 10263 10269 10276 10282 10288 10295 10302 10309 10316 10323 10330 10338 10346 10353 10358 10363
9916 9916 9916 9917 9918 9919 9920 9922 9924 9927 9929 9931 9933 9936 9940 9945 9950 9955 9960 9965 9970 9975 9980 9983 9986 9991 9996 10000 10006 10014 10021 10034 10047 10053 10059 10070 10079 10083 10090 10101 10110 10116 10123 10130 10138 10145 10153 10160 10169 10177 10186 10196 10203 10209 10217 10226 10233 10240 10245 10250 10257 10264 10271 10279 10285 10292 10299 10306 10313 10320 10328 10335 10341 10346
9912 9911 9912 9912 9913 9914 9914 9916 9918 9920 9922 9924 9927 9929 9932 9936 9940 9945 9950 9955 9960 9965 9969 9972 9975 9980 9983 9985 9992 10002 10011 10021 10032 10040 10047 10058 10065 10067 10072 10084 10096 10101 10106 10113 10122 10131 10137 10142 10151 10162 10171 10180 10188 10193 10202 10210 10216 10222 10226 10232 10239 10247 10255 10263 10270 10276 10283 10290 10297 10303 10310 10317 10324 10330
9908 9907 9907 9907 9908 9908 9909 9910 9912 9913 9916 9918 9920 9922 9925 9928 9932 9936 9941 9945 9950 9955 9959 9962 9966 9968 9970 9973 9980 9990 9999 10007 10017 10025 10031 10041 10051 10054 10058 10069 10080 10085 10088 10095 10105 10117 10124 10128 10136 10149 10158 10165 10171 10176 10184 10192 10198 10203 10209 10215 10223 10231 10238 10246 10253 10260 10267 10273 10280 10286 10293 10299 10306 10313
9904 9903 9903 9903 9903 9903 9904 9905 9906 9908 9909 9911 9914 9916 9918 9921 9924 9928 9932 9936 9941 9945 9949 9953 9956 9958 9961 9964 9969 9976 9984 9993 10003 10010 10017 10027 10036 10041 10044 10053 10064 10067 10069 10076 10089 10103 10112 10115 10121 10134 10144 10150 10154 10160 10166 10173 10179 10185 10192 10199 10206 10214 10222 10230 10237 10243 10250 10256 10263 10270 10277 10283 10289 10296
9900 9899 9899 9899 9898 9899 9899 9900 9901 9902 9903 9905 9907 9909 9912 9914 9917 9920 9923 9927 9931 9935 9939 9943 9947 9951 9954 9957 9961 9966 9972 9982 9990 9996 10002 10011 10019 10026 10031 10040 10049 10052 10053 10060 10074 10089 10099 10100 10104 10117 10129 10133 10137 10143 10149 10154 10159 10165 10173 10181 10189 10197 10206 10214 10221 10227 10232 10238 10245 10252 10259 10267 10274 10280
9897 9896 9895 9894 9894 9894 9894 9895 9895 9896 9898 9899 9901 9903 9905 9907 9910 9913 9915 9919 9922 9926 9930 9934 9938 9941 9944 9947 9952 9957 9963 9970 9976 9981 9986 9995 10005 10013 10019 10026 10036 10041 10042 10045 10057 10072 10084 10085 10085 10097 10110 10113 10116 10124 10130 10135 10140 10147 10156 10164 10172 10180 10188 10196 10204 10210 10216 10222 10228 10234 10242 10249 10257 10264
9893 9892 9891 9890 9890 9890 9890 9890 9891 9891 9892 9894 9895 9897 9898 9901 9903 9906 9908 9911 9914 9917 9920 9924 9928 9931 9934 9938 9942 9947 9951 9956 9961 9967 9973 9981 9989 9997 10003 10010 10021 10029 10030 10030 10038 10054 10067 10068 10067 10078 10090 10092 10095 10103 10111 10117 10124 10131 10139 10147 10154 10162 10170 10178 10186 10193 10200 10206 10212 10218 10225 10233 10240 10246
9889 9888 9887 9886 9886 9886 9886 9886 9886 9886 9887 9888 9889 9891 9892 9894 9897 9899 9901 9904 9906 9909 9911 9914 9917 9920 9924 9929 9932 9936 9940 9944 9949 9955 9961 9966 9972 9979 9987 9995 10005 10012 10014 10015 10021 10034 10048 10051 10051 10059 10069 10073 10079 10087 10093 10100 10107 10113 10121 10128 10136 10144 10153 10161 10169 10176 10183 10191 10197 10203 10210 10217 10224 10229
9886 9885 9884 9883 9882 9882 9882 9882 9882 9882 9882 9883 9884 9885 9887 9888 9890 9892 9894 9896 9899 9902 9904 9906 9909 9911 9914 9918 9922 9926 9930 9934 9939 9944 9947 9951 9957 9965 9974 9982 9989 9994 9997 10001 10006 10017 10029 10034 10034 10039 10048 10055 10065 10074 10078 10083 10089 10094 10101 10110 10118 10126 10135 10143 10152 10160 10167 10174 10181 10188 10194 10201 10207 10212
9882 9881 9880 9879 9878 9878 9877 9877 9877 9877 9877 9878 9878 9879 9881 9882 9884 9886 9888 9889 9892 9894 9897 9899 9901 9903 9906 9909 9912 9915 9919 9923 9928 9932 9933 9937 9945 9953 9960 9966 9971 9977 9982 9987 9993 10001 10010 10015 10017 10023 10031 10039 10049 10058 10062 10066 10071 10076 10082 10091 10100 10109 10118 10126 10134 10143 10151 10158 10165 10172 10178 10184 10189 10193
9879 9877 9876 9875 9874 9874 9873 9873 9873 9873 9873 9873 9873 9874 9875 9876 9878 9879 9881 9883 9885 9887 9889 9891 9893 9895 9897 9900 9902 9905 9909 9912 9917 9919 9922 9928 9935 9941 9945 9950 9955 9962 9968 9973 9978 9986 9995 9999 10002 10008 10017 10026 10034 10039 10042 10048 10053 10058 10064 10072 10082 10092 10101 10108 10116 10125 10134 10142 10150 10156 10162 10168 10172 10176
9876 9874 9872 9871 9870 9870 9869 9869 9869 9868 9868 9868 9868 9869 9869 9870 9871 9873 9874 9876 9878 9879 9881 9883 9885 9887 9889 9891 9893 9896 9899 9902 9905 9908 9912 9919 9924 9928 9932 9937 9942 9947 9952 9957 9965 9973 9980 9985 9988 9993 10001 10011 10019 10021 10022 10028 10034 10040 10047 10055 10065 10075 10083 10090 10099 10108 10116 10124 10131 10139 10145 10151 10156 10161
9872 9871 9869 9868 9866 9865 9865 9865 9864 9864 9864 9864 9864 9864 9864 9865 9865 9866 9867 9869 9870 9872 9874 9875 9877 9879 9880 9882 9885 9887 9889 9892 9895 9898 9903 9908 9913 9917 9920 9924 9929 9932 9936 9942 9951 9959 9964 9969 9974 9979 9986 9996 10003 10005 10007 10012 10017 10023 10031 10040 10049 10058 10066 10074 10083 10091 10098 10105 10112 10119 10127 10134 10140 10145
9868 9867 9865 9864 9863 9862 9861 9860 9860 9860 9860 9859 9859 9859 9859 9859 9860 9860 9861 9862 9863 9865 9866 9867 9869 9871 9873 9874 9876 9878 9881 9883 9886 9889 9893 9897 9901 9904 9907 9911 9915 9918 9921 9929 9938 9943 9947 9953 9958 9964 9972 9980 9987 9991 9993 9997 10003 10009 10016 10024 10032 10041 10049 10057 10067 10075 10082 10088 10093 10100 10106 10113 10121 10128
9864 9863 9861 9860 9859 9858 9857 9856 9856 9855 9855 9855 9854 9854 9854 9854 9854 9855 9855 9856 9857 9858 9859 9860 9861 9863 9865 9866 9868 9870 9873 9876 9878 9880 9882 9886 9889 9891 9894 9898 9902 9904 9909 9916 9924 9928 9931 9936 9941 9947 9954 9962 9969 9975 9979 9983 9989 9995 10002 10009 10016 10024 10033 10042 10051 10059 10066 10071 10076 10081 10086 10093 10101 10110
9860 9858 9857 9856 9854 9853 9852 9852 9851 9851 9850 9850 9850 9849 9849 9849 9849 9849 9849 9850 9850 9851 9852 9853 9854 9855 9857 9858 9860 9862 9865 9867 9869 9870 9872 9874 9878 9881 9883 9886 9890 9893 9897 9904 9910 9914 9917 9921 9926 9932 9938 9945 9952 9958 9964 9968 9974 9980 9987 9994 10000 10008 10017 10025 10033 10042 10049 10055 10060 10064 10069 10075 10083 10091
9856 9854 9853 9851 9850 9849 9848 9847 9846 9846 9845 9845 9845 9844 9844 9844 9844 9844 9844 9844 9844 9845 9845 9846 9846 9847 9849 9850 9852 9854 9856 9858 9860 9862 9864 9866 9869 9872 9874 9877 9879 9882 9886 9892 9897 9900 9904 9909 9914 9919 9925 9930 9936 9943 9949 9954 9960 9965 9972 9979 9985 9992 10000 10008 10017 10024 10031 10036 10042 10047 10052 10058 10066 10073
9852 9850 9848 9847 9845 9844 9843 9842 9842 9841 9841 9840 9840 9839 9839 9838 9838 9838 9838 9838 9838 9839 9839 9839 9840 9840 9841 9842 9844 9846 9848 9849 9851 9854 9856 9858 9860 9862 9865 9868 9870 9873 9877 9881 9885 9888 9893 9898 9902 9907 9912 9917 9922 9929 9935 9941 9946 9951 9957 9964 9970 9977 9984 9992 10000 10007 10012 10018 10024 10030 10034 10040 10047 10055
9847 9845 9844 9842 9841 9840 9838 9838 9837 9836 9836 9835 9835 9834 9834 9833 9833 9832 9832 9832 9832 9832 9833 9833 9833 9834 9834 9835 9836 9838 9840 9841 9843 9845 9847 9849 9851 9854 9857 9859 9861 9864 9868 9871 9874 9878 9881 9885 9890 9894 9899 9904 9909 9915 9920 9926 9931 9935 9941 9949 9955 9960 9967 9976 9984 9990 9996 10001 10007 10013 10017 10022 10029 10036
9843 9841 9839 9837 9836 9835 9834 9833 9832 9831 9831 9830 9830 9829 9829 9828 9828 9827 9827 9826 9826 9826 9826 9827 9827 9827 9828 9828 9829 9830 9832 9833 9834 9836 9838 9840 9843 9845 9847 9849 9852 9855 9859 9861 9864 9867 9870 9873 9877 9881 9885 9890 9896 9901 9905 9910 9915 9920 9925 9933 9939 9944 9950 9959 9967 9974 9980 9985 9990 9996 10000 10005 10011 10018
9838 9836 9834 9833 9831 9830 9829 9828 9827 9826 9826 9825 9825 9825 9824 9824 9823 9822 9822 9821 9820 9820 9820 9820 9821 9821 9821 9822 9822 9823 9824 9825 9826 9828 9830 9833 9835 9836 9837 9839 9843 9847 9849 9852 9854 9858 9860 9863 9866 9870 9874 9879 9884 9888 9892 9897 9901 9905 9911 9919 9926 9930 9935 9942 9951 9958 9963 9969 9975 9979 9983 9988 9994 10001
9834 9832 9830 9828 9827 9826 9825 9824 9822 9821 9821 9820 9820 9819 9819 9819 9818 9818 9817 9816 9815 9815 9814 9815 9815 9815 9815 9816 9816 9816 9817 9818 9819 9821 9823 9825 9826 9827 9828 9831 9834 9838 9840 9843 9846 9849 9852 9855 9858 9861 9865 9870 9873 9877 9881 9885 9889 9893 9900 9906 9912 9916 9920 9927 9935 9942 9948 9954 9960 9965 9968 9973 9978 9984
9829 9827 9826 9824 9823 9821 9820 9819 9818 9817 9816 9815 9815 9814 9814 9813 9813 9813 9812 9811 9810 9809 9809 9809 9810 9810 9810 9810 9810 9810 9811 9812 9812 9814 9815 9817 9818 9820 9821 9823 9826 9829 9831 9835 9838 9841 9844 9846 9849 9852 9856 9860 9862 9865 9869 9873 9877 9882 9888 9894 9899 9904 9907 9912 9919 9927 9934 9940 9946 9951 9955 9959 9963 9969
9825 9823 9821 9819 9818 9817 9815 9814 9813 9812 9811 9811 9810 9809 9809 9808 9808 9807 9807 9806 9805 9804 9803 9804 9804 9804 9804 9804 9804 9804 9805 9805 9806 9807 9808 9809 9811 9812 9814 9816 9818 9820 9823 9826 9829 9832 9835 9838 9840 9843 9846 9849 9852 9855 9859 9863 9866 9871 9876 9881 9886 9891 9895 9899 9905 9913 9920 9926 9931 9936 9941 9945 9950 9955
9821 9819 9817 9815 9813 9812 9811 9810 9808 9807 9806 9805 9805 9804 9804 9803 9803 9802 9802 9801 9800 9799 9798 9798 9799 9798 9798 9798 9799 9799 9799 9800 9800 9801 9802 9803 9804 9806 9807 9809 9810 9812 9815 9817 9820 9822 9825 9828 9831 9834 9837 9839 9842 9845 9849 9853 9857 9861 9866 9870 9875 9880 9884 9887 9893 9899 9906 9911 9916 9921 9926 9931 9936 9941
9817 9814 9812 9810 9809 9807 9806 9805 9804 9803 9801 9800 9800 9799 9799 9798 9798 9798 9797 9796 9795 9794 9793 9793 9793 9793 9793 9793 9793 9793 9794 9794 9795 9795 9796 9797 9798 9799 9801 9802 9804 9805 9807 9809 9812 9814 9816 9819 9822 9825 9827 9830 9834 9837 9841 9845 9849 9853 9857 9860 9864 9868 9873 9876 9881 9886 9892 9897 9902 9907 9912 9917 9922 9927
9812 9810 9808 9806 9804 9803 9802 9800 9799 9798 9797 9796 9795 9794 9794 9793 9793 9793 9793 9792 9791 9790 9789 9789 9789 9788 9788 9788 9788 9788 9788 9789 9789 9790 9790 9791 9792 9793 9795 9796 9797 9799 9800 9802 9804 9806 9809 9811 9813 9816 9819 9822 9826 9829 9833 9836 9839 9842 9845 9848 9852 9856 9861 9865 9869 9874 9879 9885 9889 9894 9899 9904 9909 9914
9808 9806 9804 9802 9800 9799 9797 9796 9795 9794 9793 9792 9791 9790 9789 9789 9788 9788 9788 9788 9787 9786 9785 9784 9784 9784 9784 9783 9783 9783 9783 9784 9784 9785 9785 9786 9786 9787 9789 9790 9791 9793 9794 9796 9797 9799 9801 9803 9806 9809 9811 9815 9818 9821 9823 9826 9829 9832 9836 9839 9843 9846 9850 9854 9858 9863 9868 9873 9877 9882 9887 9892 9896 9901
9804 9802 9800 9798 9796 9795 9793 9792 9791 9790 9788 9787 9786 9785 9785 9784 9784 9784 9783 9783 9783 9782 9781 9780 9780 9780 9780 9779 9779 9779 9779 9779 9779 9780 9780 9781 9781 9782 9783 9784 9785 9787 9788 9790 9791 9793 9795 9797 9799 9802 9804 9807 9810 9813 9815 9818 9822 9825 9828 9831 9834 9838 9841 9844 9848 9851 9855 9860 9864 9869 9874 9879 9884 9889
9799 9797 9796 9794 9792 9791 9789 9787 9786 9785 9784 9783 9782 9781 9780 9780 9779 9779 9779 9779 9779 9778 9777 9776 9776 9776 9775 9775 9775 9775 9775 9775 9775 9775 9776 9776 9777 9778 9778 9779 9780 9782 9783 9784 9786 9787 9789 9791 9793 9795 9798 9800 9803 9806 9809 9812 9815 9818 9821 9824 9827 9830 9833 9836 9839 9842 9845 9849 9854 9858 9863 9868 9873 9878
9794 9793 9791 9789 9788 9786 9784 9783 9782 9781 9780 9779 9778 9777 9776 9775 9775 9775 9775 9775 9775 9775 9774 9773 9772 9772 9772 9771 9771 9771 9771 9771 9771 9771 9772 9772 9773 9773 9774 9775 9776 9777 9778 9780 9781 9782 9784 9786 9787 9789 9792 9794 9797 9799 9802 9805 9808 9811 9813 9816 9819 9822 9825 9828 9831 9834 9838 9841 9846 9850 9854 9858 9863 9867
9790 9788 9786 9785 9783 9781 9780 9778 9777 9776 9776 9775 9774 9773 9772 9771 9771 9770 9770 9770 9771 9771 9770 9769 9769 9768 9768 9768 9768 9768 9768 9768 9768 9768 9768 9768 9769 9769 9770 9770 9771 9773 9774 9775 9777 9778 9779 9781 9782 9784 9786 9788 9791 9793 9796 9798 9801 9804 9806 9809 9812 9815 9818 9821 9824 9827 9830 9834 9837 9841 9845 9849 9853 9858